, AK

(GMT )
Hooper Bay

Weather History for PAHP - February, 2014

Change the Weather History Date:

Monday, February 24, 2014

  Actual Average Record
Temperature  
Mean Temperature 37 °F -  
Max Temperature 39 °F 17 °F 39 °F (2014)
Min Temperature 35 °F 9 °F -16 °F (2012)
Degree Days  
Heating Degree Days 28    
Moisture  
Dew Point 28 °F    
Average Humidity 65    
Maximum Humidity 70    
Minimum Humidity 61    
Precipitation  
Precipitation 0.00 in - - ()
Sea Level Pressure  
Sea Level Pressure 29.73 in    
Wind  
Wind Speed 23 mph (ESE)    
Max Wind Speed 28 mph    
Max Gust Speed 32 mph    
Visibility 5 miles    
Events      
Averages and records for this station are not official NWS values.
T = Trace of Precipitation, MM = Missing Value Source: NWS Daily Summary

Daily Weather History Graph

Daily Weather History Graph

Search for Another Location

Airport or City:

Trip Planner

Search our weather history database for the weather conditions in past years. The results will help you decide how hot, cold, wet, or windy it might be!

Date:

Astronomy

Feb. 24, 2014 Rise Set
Actual Time 9:20 AM AKST 7:16 PM AKST
Civil Twilight 8:36 AM AKST 8:00 PM AKST
Nautical Twilight 7:45 AM AKST 8:51 PM AKST
Astronomical Twilight 6:54 AM AKST 9:42 PM AKST
Moon 6:30 AM AKST (2/24) 1:32 PM AKST (2/24)
Length of Visible Light 11h 24m
Length of Day
9h 55m
Waning Crescent, 26% of the Moon is Illuminated
Feb 24
Waning Crescent
Feb 28
New
Mar 8
First Quarter
Mar 16
Full
Mar 23
Last Quarter

Hourly Weather History & Observations

Time (AKST) Temp. Windchill Dew Point Humidity Pressure Visibility Wind Dir Wind Speed Gust Speed Precip Events Conditions
12:16 AM 39.2 °F 28.3 °F 28.4 °F 65% 29.65 in 1.2 mi ESE 25.3 mph - N/A   Overcast
12:36 AM 39.2 °F 28.3 °F 28.4 °F 65% 29.66 in 1.5 mi ESE 25.3 mph - N/A   Overcast
12:56 AM 39.2 °F 28.3 °F 28.4 °F 65% 29.66 in 1.8 mi ESE 25.3 mph - N/A   Overcast
1:16 AM 39.2 °F 28.5 °F 28.4 °F 65% 29.66 in 2.0 mi ESE 24.2 mph - N/A   Overcast
1:36 AM 39.2 °F 28.3 °F 28.4 °F 65% 29.67 in 2.5 mi ESE 25.3 mph - N/A   Overcast
1:56 AM 39.2 °F 28.5 °F 28.4 °F 65% 29.67 in 2.0 mi ESE 24.2 mph - N/A   Overcast
2:16 AM 39.2 °F 28.3 °F 28.4 °F 65% 29.67 in 2.0 mi ESE 25.3 mph - N/A   Overcast
2:36 AM 39.2 °F 28.0 °F 28.4 °F 65% 29.68 in 2.0 mi ESE 26.5 mph - N/A   Overcast
2:56 AM 39.2 °F 28.3 °F 28.4 °F 65% 29.68 in 2.0 mi ESE 25.3 mph - N/A   Overcast
3:16 AM 39.2 °F 28.0 °F 28.4 °F 65% 29.68 in 2.5 mi ESE 26.5 mph - N/A   Overcast
3:36 AM 39.2 °F 28.7 °F 28.4 °F 65% 29.68 in 2.5 mi ESE 23.0 mph - N/A   Overcast
3:56 AM 39.2 °F 28.7 °F 28.4 °F 65% 29.68 in 2.5 mi ESE 23.0 mph - N/A   Overcast
4:16 AM 39.2 °F 28.5 °F 28.4 °F 65% 29.68 in 3.0 mi ESE 24.2 mph - N/A   Overcast
4:36 AM 39.2 °F 28.7 °F 28.4 °F 65% 29.68 in 2.5 mi ESE 23.0 mph - N/A   Overcast
4:56 AM 39.2 °F 28.5 °F 28.4 °F 65% 29.68 in 2.5 mi ESE 24.2 mph - N/A   Overcast
5:16 AM 39.2 °F 28.5 °F 28.4 °F 65% 29.68 in 3.0 mi ESE 24.2 mph - N/A   Overcast
5:36 AM 39.2 °F 28.5 °F 28.4 °F 65% 29.68 in 3.0 mi ESE 24.2 mph - N/A   Overcast
5:56 AM 39.2 °F 28.0 °F 28.4 °F 65% 29.68 in 2.5 mi ESE 26.5 mph - N/A   Overcast
6:16 AM 39.2 °F 28.3 °F 28.4 °F 65% 29.68 in 3.0 mi ESE 25.3 mph - N/A   Overcast
6:36 AM 39.2 °F 28.3 °F 28.4 °F 65% 29.68 in 3.0 mi ESE 25.3 mph - N/A   Overcast
6:56 AM 39.2 °F 28.0 °F 28.4 °F 65% 29.69 in 4.0 mi ESE 26.5 mph - N/A   Overcast
7:16 AM 39.2 °F 28.5 °F 28.4 °F 65% 29.69 in 4.0 mi ESE 24.2 mph - N/A   Overcast
7:36 AM 39.2 °F 28.3 °F 28.4 °F 65% 29.69 in 3.0 mi ESE 25.3 mph - N/A   Overcast
7:56 AM 39.2 °F 27.8 °F 28.4 °F 65% 29.69 in 4.0 mi ESE 27.6 mph - N/A   Overcast
8:16 AM 39.2 °F 28.3 °F 28.4 °F 65% 29.70 in 3.0 mi ESE 25.3 mph - N/A   Overcast
8:36 AM 39.2 °F 27.8 °F 28.4 °F 65% 29.70 in 3.0 mi ESE 27.6 mph - N/A   Overcast
8:56 AM 39.2 °F 28.0 °F 28.4 °F 65% 29.70 in 3.0 mi ESE 26.5 mph - N/A   Overcast
9:16 AM 39.2 °F 27.8 °F 28.4 °F 65% 29.70 in 3.0 mi ESE 27.6 mph 32.2 mph N/A   Overcast
9:36 AM 39.2 °F 27.8 °F 28.4 °F 65% 29.71 in 2.5 mi ESE 27.6 mph - N/A   Overcast
9:56 AM 39.2 °F 27.8 °F 28.4 °F 65% 29.71 in 3.0 mi ESE 27.6 mph - N/A   Overcast
10:16 AM 39.2 °F 28.0 °F 28.4 °F 65% 29.71 in 3.0 mi ESE 26.5 mph - N/A   Overcast
10:36 AM 39.2 °F 27.8 °F 28.4 °F 65% 29.72 in 3.0 mi SE 27.6 mph 32.2 mph N/A   Overcast
10:56 AM 39.2 °F 28.3 °F 28.4 °F 65% 29.72 in 2.5 mi SE 25.3 mph 31.1 mph N/A   Overcast
11:16 AM 39.2 °F 28.3 °F 28.4 °F 65% 29.73 in 3.0 mi SE 25.3 mph 28.8 mph N/A   Overcast
11:36 AM 39.2 °F 28.3 °F 28.4 °F 65% 29.73 in 3.0 mi SE 25.3 mph - N/A   Overcast
11:56 AM 39.2 °F 28.5 °F 28.4 °F 65% 29.74 in 2.5 mi SE 24.2 mph - N/A   Mostly Cloudy
12:16 PM 39.2 °F 28.5 °F 26.6 °F 61% 29.74 in 2.0 mi SE 24.2 mph - N/A   Overcast
12:36 PM 39.2 °F 28.5 °F 28.4 °F 65% 29.75 in 1.8 mi SE 24.2 mph - N/A   Overcast
12:56 PM 39.2 °F 29.0 °F 26.6 °F 61% 29.75 in 2.0 mi SE 21.9 mph - N/A   Overcast
1:16 PM 39.2 °F 29.0 °F 28.4 °F 65% 29.75 in 2.0 mi SE 21.9 mph - N/A   Overcast
1:36 PM 39.2 °F 28.7 °F 28.4 °F 65% 29.76 in 2.5 mi SE 23.0 mph - N/A   Overcast
1:56 PM 37.4 °F 26.9 °F 28.4 °F 70% 29.76 in 3.0 mi SE 20.7 mph - N/A   Overcast
2:16 PM 37.4 °F 26.4 °F 28.4 °F 70% 29.76 in 7.0 mi SE 23.0 mph - N/A   Mostly Cloudy
2:36 PM 37.4 °F 26.9 °F 28.4 °F 70% 29.76 in 10.0 mi SE 20.7 mph - N/A   Overcast
2:56 PM 37.4 °F 26.4 °F 28.4 °F 70% 29.76 in 10.0 mi SE 23.0 mph - N/A   Overcast
3:16 PM 39.2 °F 29.3 °F 28.4 °F 65% 29.76 in 10.0 mi SE 20.7 mph - N/A   Overcast
3:36 PM 39.2 °F 29.3 °F 28.4 °F 65% 29.76 in 10.0 mi SE 20.7 mph - N/A   Overcast
3:56 PM 37.4 °F 26.9 °F 28.4 °F 70% 29.76 in 10.0 mi SE 20.7 mph - N/A   Overcast
4:16 PM 39.2 °F 29.3 °F 28.4 °F 65% 29.76 in 10.0 mi SE 20.7 mph - N/A   Overcast
4:36 PM 39.2 °F 30.2 °F 28.4 °F 65% 29.75 in 10.0 mi SE 17.3 mph - N/A   Overcast
4:56 PM 37.4 °F 27.5 °F 28.4 °F 70% 29.76 in 10.0 mi ESE 18.4 mph - N/A   Overcast
5:16 PM 39.2 °F 29.8 °F 28.4 °F 65% 29.76 in 8.0 mi SE 18.4 mph - N/A   Overcast
5:36 PM 39.2 °F 29.8 °F 28.4 °F 65% 29.76 in 6.0 mi SE 18.4 mph - N/A   Overcast
5:56 PM 39.2 °F 30.5 °F 28.4 °F 65% 29.76 in 8.0 mi SE 16.1 mph - N/A   Overcast
6:16 PM 39.2 °F 30.2 °F 28.4 °F 65% 29.76 in 10.0 mi SE 17.3 mph - N/A   Overcast
6:36 PM 39.2 °F 30.2 °F 28.4 °F 65% 29.76 in 10.0 mi SE 17.3 mph - N/A   Overcast
6:56 PM 39.2 °F 30.5 °F 28.4 °F 65% 29.77 in 9.0 mi ESE 16.1 mph - N/A   Overcast
7:16 PM 39.2 °F 30.8 °F 28.4 °F 65% 29.77 in 5.0 mi ESE 15.0 mph - N/A   Overcast
7:36 PM 39.2 °F 30.8 °F 28.4 °F 65% 29.77 in 8.0 mi ESE 15.0 mph - N/A   Overcast
7:56 PM 39.2 °F 30.8 °F 28.4 °F 65% 29.77 in 8.0 mi ESE 15.0 mph - N/A   Overcast
8:16 PM 39.2 °F 30.8 °F 28.4 °F 65% 29.78 in 7.0 mi ESE 15.0 mph - N/A   Mostly Cloudy
8:36 PM 39.2 °F 31.2 °F 28.4 °F 65% 29.78 in 3.0 mi ESE 13.8 mph - N/A   Overcast
8:56 PM 39.2 °F 30.8 °F 28.4 °F 65% 29.78 in 8.0 mi ESE 15.0 mph - N/A   Overcast
9:16 PM 39.2 °F 30.8 °F 26.6 °F 61% 29.78 in 7.0 mi ESE 15.0 mph - N/A   Overcast
9:36 PM 39.2 °F 30.5 °F 28.4 °F 65% 29.78 in 8.0 mi ESE 16.1 mph - N/A   Overcast
9:56 PM 37.4 °F 28.5 °F 26.6 °F 65% 29.78 in 10.0 mi ESE 15.0 mph - N/A   Overcast
10:16 PM 37.4 °F 27.8 °F 26.6 °F 65% 29.79 in 10.0 mi ESE 17.3 mph - N/A   Mostly Cloudy
10:36 PM 37.4 °F 27.5 °F 26.6 °F 65% 29.79 in 10.0 mi ESE 18.4 mph - N/A   Overcast
10:56 PM 35.6 °F 25.2 °F 26.6 °F 70% 29.79 in 10.0 mi ESE 18.4 mph - N/A   Overcast
11:16 PM 35.6 °F 25.5 °F 24.8 °F 65% 29.79 in 10.0 mi ESE 17.3 mph - N/A   Overcast
11:36 PM 35.6 °F 25.5 °F 26.6 °F 70% 29.79 in 9.0 mi ESE 17.3 mph - N/A   Overcast
11:56 PM 35.6 °F 25.9 °F 26.6 °F 70% 29.79 in 10.0 mi ESE 16.1 mph - N/A   Overcast